| time (UTC) | temp C | wind direction | speed KPH | gust KPH | rain 1hr cm | rain 24hr cm | rain mn cm | humidity % | barometer mb |
| 20260906051926 | 27 | 134 | 0.0 | 1.6 | 0.00 | 0.00 | 0.00 | 45 | 1019.4 |
| 20260906051256 | 27 | 136 | 0.0 | 0.0 | 0.00 | 0.00 | 0.00 | 44 | 1019.4 |
| 20260906050709 | 27 | 139 | 0.0 | 0.0 | 0.00 | 0.00 | 0.00 | 44 | 1019.4 |
| 20260906050135 | 27 | 136 | 0.0 | 0.0 | 0.00 | 0.00 | 0.00 | 44 | 1019.4 |
| 20260906045507 | 27 | 137 | 0.0 | 0.0 | 0.00 | 0.00 | 0.00 | 44 | 1019.7 |
| 20260906044916 | 27 | 130 | 0.0 | 0.0 | 0.00 | 0.00 | 0.00 | 44 | 1019.4 |
| 20260906044314 | 27 | 132 | 0.0 | 0.0 | 0.00 | 0.00 | 0.00 | 44 | 1019.7 |
| 20260906043909 | 27 | 137 | 0.0 | 0.0 | 0.00 | 0.00 | 0.00 | 43 | 1019.7 |
| 20260906043040 | 27 | 138 | 0.0 | 0.0 | 0.00 | 0.00 | 0.00 | 43 | 1019.4 |
| 20260906042516 | 27 | 144 | 0.0 | 0.0 | 0.00 | 0.00 | 0.00 | 43 | 1019.0 |
| 20260906042000 | 27 | 123 | 0.0 | 0.0 | 0.00 | 0.00 | 0.00 | 43 | 1019.4 |
| 20260906041400 | 27 | 124 | 3.2 | 6.4 | 0.00 | 0.00 | 0.00 | 43 | 1019.4 |
| 20260906040721 | 27 | 135 | 0.0 | 0.0 | 0.00 | 0.00 | 0.00 | 43 | 1019.0 |
| 20260906040341 | 27 | 139 | 0.0 | 0.0 | 0.00 | 0.00 | 0.00 | 43 | 1019.4 |
| 20260906035501 | 27 | 137 | 0.0 | 0.0 | 0.00 | 0.00 | 0.00 | 43 | 1019.4 |
| 20260906034842 | 27 | 135 | 0.0 | 0.0 | 0.00 | 0.00 | 0.00 | 42 | 1019.4 |
| 20260906034258 | 27 | 133 | 0.0 | 0.0 | 0.00 | 0.00 | 0.00 | 42 | 1018.7 |
| 20260906033933 | 28 | 140 | 0.0 | 0.0 | 0.00 | 0.00 | 0.00 | 41 | 1018.7 |
| 20260906033138 | 28 | 168 | 0.0 | 0.0 | 0.00 | 0.00 | 0.00 | 41 | 1018.7 |
| 20260906032639 | 28 | 137 | 0.0 | 0.0 | 0.00 | 0.00 | 0.00 | 41 | 1018.7 |
| 20260906032030 | 28 | 141 | 0.0 | 1.6 | 0.00 | 0.00 | 0.00 | 41 | 1018.7 |
| 20260906031418 | 28 | 151 | 0.0 | 12.9 | 0.00 | 0.00 | 0.00 | 41 | 1018.7 |
| 20260906031034 | 28 | 121 | 6.4 | 12.9 | 0.00 | 0.00 | 0.00 | 41 | 1018.7 |
| 20260906030200 | 28 | 145 | 0.0 | 0.0 | 0.00 | 0.00 | 0.00 | 42 | 1018.0 |
| 20260906025836 | 28 | 154 | 0.0 | 9.7 | 0.00 | 0.00 | 0.00 | 41 | 1017.7 |
| 20260906025544 | 28 | 150 | 0.0 | 3.2 | 0.00 | 0.00 | 0.00 | 42 | 1018.0 |
| 20260906024521 | 28 | 126 | 0.0 | 1.6 | 0.00 | 0.00 | 0.00 | 40 | 1017.7 |
| 20260906023755 | 28 | 149 | 0.0 | 0.0 | 0.00 | 0.00 | 0.00 | 40 | 1017.7 |
| 20260906022920 | 28 | 142 | 0.0 | 4.8 | 0.00 | 0.00 | 0.00 | 39 | 1017.7 |
| 20260906022312 | 28 | 149 | 0.0 | 0.0 | 0.00 | 0.00 | 0.00 | 38 | 1017.7 |
| 20260906021906 | 29 | 193 | 0.0 | 0.0 | 0.00 | 0.00 | 0.00 | 37 | 1017.3 |
| 20260906021024 | 29 | 138 | 0.0 | 0.0 | 0.00 | 0.00 | 0.00 | 36 | 1017.7 |
| 20260906020956 | 29 | 138 | 0.0 | 0.0 | 0.00 | 0.00 | 0.00 | 36 | 1017.3 |
| 20260906015658 | 29 | 130 | 0.0 | 0.0 | 0.00 | 0.00 | 0.00 | 35 | 1017.3 |
| 20260906015051 | 29 | 109 | 0.0 | 0.0 | 0.00 | 0.00 | 0.00 | 35 | 1017.3 |
| 20260906014631 | 29 | 133 | 0.0 | 0.0 | 0.00 | 0.00 | 0.00 | 35 | 1017.0 |
| 20260906013800 | 29 | 194 | 0.0 | 6.4 | 0.00 | 0.00 | 0.00 | 36 | 1017.0 |
| 20260906013208 | 30 | 202 | 1.6 | 6.4 | 0.00 | 0.00 | 0.00 | 35 | 1017.3 |
| 20260906012617 | 30 | 194 | 0.0 | 0.0 | 0.00 | 0.00 | 0.00 | 35 | 1017.3 |
| 20260906011958 | 30 | 144 | 0.0 | 0.0 | 0.00 | 0.00 | 0.00 | 35 | 1017.0 |
| 20260906011607 | 30 | 178 | 0.0 | 0.0 | 0.00 | 0.00 | 0.00 | 35 | 1017.3 |
| 20260906010652 | 30 | 177 | 0.0 | 0.0 | 0.00 | 0.00 | 0.00 | 35 | 1017.0 |
| 20260906010021 | 30 | 198 | 0.0 | 1.6 | 0.00 | 0.00 | 0.00 | 35 | 1017.0 |
| 20260906005411 | 30 | 206 | 0.0 | 0.0 | 0.00 | 0.00 | 0.00 | 35 | 1017.3 |
| 20260906004459 | 30 | 191 | 0.0 | 3.2 | 0.00 | 0.00 | 0.00 | 34 | 1017.0 |
| 20260906003919 | 30 | 193 | 0.0 | 11.3 | 0.00 | 0.00 | 0.00 | 35 | 1017.3 |
| 20260906003312 | 30 | 145 | 0.0 | 17.7 | 0.00 | 0.00 | 0.00 | 34 | 1017.0 |
| 20260906002710 | 30 | 122 | 14.5 | 17.7 | 0.00 | 0.00 | 0.00 | 35 | 1017.3 |
| 20260906002134 | 30 | 127 | 4.8 | 20.9 | 0.00 | 0.00 | 0.00 | 34 | 1017.0 |
| 20260906001359 | 31 | 115 | 16.1 | 24.1 | 0.00 | 0.00 | 0.00 | 33 | 1016.7 |
| 20260906000751 | 32 | 113 | 22.5 | 30.6 | 0.00 | 0.00 | 0.00 | 32 | 1017.0 |
| 20260905235837 | 31 | 116 | 12.9 | 22.5 | 0.00 | 0.00 | 0.00 | 31 | 1017.0 |
| 20260905235215 | 31 | 124 | 8.0 | 27.4 | 0.00 | 0.00 | 0.00 | 32 | 1017.0 |
| 20260905234713 | 31 | 166 | 20.9 | 27.4 | 0.00 | 0.00 | 0.00 | 34 | 1016.7 |
| 20260905234059 | 31 | 121 | 11.3 | 22.5 | 0.00 | 0.00 | 0.00 | 32 | 1016.7 |
| 20260905233503 | 31 | 167 | 17.7 | 24.1 | 0.00 | 0.00 | 0.00 | 33 | 1016.7 |
| 20260905232902 | 31 | 122 | 12.9 | 27.4 | 0.00 | 0.00 | 0.00 | 34 | 1017.0 |
| 20260905232258 | 33 | 153 | 14.5 | 30.6 | 0.00 | 0.00 | 0.00 | 32 | 1017.0 |
| 20260905231638 | 33 | 146 | 22.5 | 30.6 | 0.00 | 0.00 | 0.00 | 28 | 1016.7 |
| 20260905231017 | 33 | 108 | 20.9 | 27.4 | 0.00 | 0.00 | 0.00 | 27 | 1016.3 |
| 20260905230509 | 33 | 125 | 6.4 | 24.1 | 0.00 | 0.00 | 0.00 | 28 | 1016.3 |
| 20260905225923 | 33 | 124 | 19.3 | 27.4 | 0.00 | 0.00 | 0.00 | 28 | 1016.7 |
| 20260905225319 | 33 | 156 | 16.1 | 29.0 | 0.00 | 0.00 | 0.00 | 27 | 1016.3 |
| 20260905224642 | 34 | 130 | 20.9 | 29.0 | 0.00 | 0.00 | 0.00 | 28 | 1016.3 |
| 20260905224022 | 35 | 113 | 8.0 | 22.5 | 0.00 | 0.00 | 0.00 | 26 | 1016.7 |
| 20260905223548 | 35 | 137 | 9.7 | 20.9 | 0.00 | 0.00 | 0.00 | 26 | 1016.3 |
| 20260905222729 | 35 | 106 | 9.7 | 17.7 | 0.00 | 0.00 | 0.00 | 26 | 1016.0 |
| 20260905222128 | 34 | 124 | 11.3 | 33.8 | 0.00 | 0.00 | 0.00 | 26 | 1016.3 |
| 20260905221612 | 35 | 136 | 12.9 | 33.8 | 0.00 | 0.00 | 0.00 | 26 | 1016.3 |
| 20260905220959 | 35 | 159 | 12.9 | 14.5 | 0.00 | 0.00 | 0.00 | 26 | 1016.7 |
| 20260905220359 | 35 | 113 | 11.3 | 20.9 | 0.00 | 0.00 | 0.00 | 27 | 1016.3 |
| 20260905215500 | 35 | 150 | 14.5 | 24.1 | 0.00 | 0.00 | 0.00 | 27 | 1016.3 |
| 20260905215148 | 35 | 101 | 9.7 | 24.1 | 0.00 | 0.00 | 0.00 | 26 | 1016.7 |
| 20260905214259 | 34 | 122 | 16.1 | 20.9 | 0.00 | 0.00 | 0.00 | 27 | 1016.7 |
| 20260905213559 | 35 | 121 | 0.0 | 14.5 | 0.00 | 0.00 | 0.00 | 28 | 1017.0 |
| 20260905213452 | 35 | 92 | 6.4 | 17.7 | 0.00 | 0.00 | 0.00 | 26 | 1017.0 |
| 20260905212625 | 36 | 112 | 6.4 | 17.7 | 0.00 | 0.00 | 0.00 | 26 | 1016.7 |
| 20260905211817 | 35 | 99 | 6.4 | 17.7 | 0.00 | 0.00 | 0.00 | 26 | 1016.7 |
| 20260905211217 | 36 | 132 | 3.2 | 12.9 | 0.00 | 0.00 | 0.00 | 24 | 1017.3 |
| 20260905210611 | 35 | 162 | 6.4 | 12.9 | 0.00 | 0.00 | 0.00 | 25 | 1017.0 |
| 20260905210006 | 35 | 114 | 0.0 | 0.0 | 0.00 | 0.00 | 0.00 | 26 | 1017.0 |
| 20260905205405 | 36 | 135 | 8.0 | 9.7 | 0.00 | 0.00 | 0.00 | 24 | 1017.3 |
| 20260905204453 | 35 | 104 | 8.0 | 12.9 | 0.00 | 0.00 | 0.00 | 24 | 1017.3 |
| 20260905203819 | 36 | 187 | 0.0 | 4.8 | 0.00 | 0.00 | 0.00 | 24 | 1017.3 |
| 20260905203158 | 36 | 140 | 0.0 | 0.0 | 0.00 | 0.00 | 0.00 | 24 | 1017.3 |
| 20260905202437 | 36 | 155 | 0.0 | 6.4 | 0.00 | 0.00 | 0.00 | 23 | 1017.3 |
| 20260905201549 | 36 | 198 | 0.0 | 12.9 | 0.00 | 0.00 | 0.00 | 24 | 1017.3 |
| 20260905200858 | 36 | 194 | 9.7 | 12.9 | 0.00 | 0.00 | 0.00 | 23 | 1017.7 |
| 20260905200217 | 36 | 116 | 1.6 | 6.4 | 0.00 | 0.00 | 0.00 | 23 | 1017.7 |
| 20260905195518 | 36 | 178 | 0.0 | 14.5 | 0.00 | 0.00 | 0.00 | 25 | 1017.7 |
| 20260905194751 | 36 | 152 | 0.0 | 11.3 | 0.00 | 0.00 | 0.00 | 24 | 1017.7 |
| 20260905194143 | 36 | 185 | 0.0 | 11.3 | 0.00 | 0.00 | 0.00 | 24 | 1018.0 |
| 20260905193641 | 36 | 207 | 0.0 | 6.4 | 0.00 | 0.00 | 0.00 | 25 | 1017.7 |
| 20260905193058 | 37 | 180 | 0.0 | 9.7 | 0.00 | 0.00 | 0.00 | 24 | 1018.0 |
| 20260905192522 | 36 | 184 | 0.0 | 3.2 | 0.00 | 0.00 | 0.00 | 24 | 1018.0 |
| 20260905191910 | 36 | 177 | 1.6 | 3.2 | 0.00 | 0.00 | 0.00 | 25 | 1018.0 |
| 20260905191405 | 36 | 206 | 0.0 | 3.2 | 0.00 | 0.00 | 0.00 | 25 | 1018.3 |
| 20260905190731 | 36 | 195 | 1.6 | 3.2 | 0.00 | 0.00 | 0.00 | 25 | 1018.3 |
| 20260905190057 | 33 | 207 | 0.0 | 0.0 | 0.00 | 0.00 | 0.00 | 27 | 1018.0 |
| 20260905185418 | 34 | 139 | 0.0 | 16.1 | 0.00 | 0.00 | 0.00 | 27 | 1018.3 |
| 20260905184908 | 35 | 121 | 0.0 | 16.1 | 0.00 | 0.00 | 0.00 | 25 | 1018.3 |
| 20260905184309 | 36 | 162 | 0.0 | 6.4 | 0.00 | 0.00 | 0.00 | 26 | 1018.3 |
| 20260905183551 | 36 | 158 | 0.0 | 12.9 | 0.00 | 0.00 | 0.00 | 25 | 1019.0 |
| 20260905183008 | 36 | 177 | 0.0 | 1.6 | 0.00 | 0.00 | 0.00 | 26 | 1018.7 |
| 20260905182313 | 35 | 208 | 0.0 | 0.0 | 0.00 | 0.00 | 0.00 | 28 | 1019.0 |
| 20260905181650 | 34 | 107 | 0.0 | 3.2 | 0.00 | 0.00 | 0.00 | 29 | 1019.0 |
| 20260905181316 | 34 | 115 | 1.6 | 11.3 | 0.00 | 0.00 | 0.00 | 29 | 1018.7 |
| 20260905180429 | 34 | 225 | 0.0 | 1.6 | 0.00 | 0.00 | 0.00 | 29 | 1019.0 |
| 20260905175600 | 33 | 152 | 0.0 | 9.7 | 0.00 | 0.00 | 0.00 | 29 | 1018.7 |
| 20260905174940 | 34 | 187 | 6.4 | 9.7 | 0.00 | 0.00 | 0.00 | 29 | 1019.4 |
| 20260905174341 | 35 | 119 | 3.2 | 4.8 | 0.00 | 0.00 | 0.00 | 28 | 1019.0 |
| 20260905173733 | 33 | 200 | 0.0 | 6.4 | 0.00 | 0.00 | 0.00 | 30 | 1019.0 |
| 20260905173210 | 33 | 140 | 4.8 | 6.4 | 0.00 | 0.00 | 0.00 | 31 | 1019.0 |
| 20260905172815 | 33 | 162 | 0.0 | 9.7 | 0.00 | 0.00 | 0.00 | 30 | 1019.4 |
| 20260905171943 | 33 | 121 | 0.0 | 0.0 | 0.00 | 0.00 | 0.00 | 30 | 1019.4 |
| 20260905171323 | 34 | 173 | 0.0 | 0.0 | 0.00 | 0.00 | 0.00 | 30 | 1019.0 |
| 20260905170659 | 33 | 203 | 0.0 | 0.0 | 0.00 | 0.00 | 0.00 | 31 | 1019.4 |
| 20260905170345 | 33 | 179 | 0.0 | 0.0 | 0.00 | 0.00 | 0.00 | 31 | 1019.0 |
| 20260905165518 | 33 | 200 | 0.0 | 9.7 | 0.00 | 0.00 | 0.00 | 30 | 1019.4 |
| 20260905164857 | 33 | 125 | 0.0 | 4.8 | 0.00 | 0.00 | 0.00 | 32 | 1019.4 |
| 20260905164235 | 32 | 179 | 0.0 | 6.4 | 0.00 | 0.00 | 0.00 | 34 | 1019.4 |
| 20260905163822 | 32 | 165 | 0.0 | 1.6 | 0.00 | 0.00 | 0.00 | 34 | 1019.4 |
| 20260905162910 | 32 | 181 | 0.0 | 1.6 | 0.00 | 0.00 | 0.00 | 34 | 1019.4 |
| 20260905162406 | 31 | 155 | 0.0 | 0.0 | 0.00 | 0.00 | 0.00 | 35 | 1019.4 |
| 20260905161854 | 31 | 188 | 0.0 | 0.0 | 0.00 | 0.00 | 0.00 | 36 | 1019.4 |
| 20260905161221 | 31 | 195 | 0.0 | 1.6 | 0.00 | 0.00 | 0.00 | 35 | 1019.4 |
| 20260905160607 | 31 | 171 | 0.0 | 4.8 | 0.00 | 0.00 | 0.00 | 36 | 1019.4 |
| 20260905160212 | 31 | 162 | 3.2 | 4.8 | 0.00 | 0.00 | 0.00 | 37 | 1019.4 |
| 20260905155437 | 31 | 209 | 0.0 | 0.0 | 0.00 | 0.00 | 0.00 | 38 | 1019.0 |
| 20260905154810 | 30 | 175 | 0.0 | 0.0 | 0.00 | 0.00 | 0.00 | 39 | 1019.0 |
| 20260905154112 | 30 | 187 | 0.0 | 1.6 | 0.00 | 0.00 | 0.00 | 41 | 1019.0 |
| 20260905153737 | 29 | 160 | 0.0 | 1.6 | 0.00 | 0.00 | 0.00 | 43 | 1019.4 |
| 20260905152906 | 28 | 190 | 0.0 | 0.0 | 0.00 | 0.00 | 0.00 | 44 | 1019.0 |
| 20260905152306 | 28 | 194 | 0.0 | 1.6 | 0.00 | 0.00 | 0.00 | 46 | 1019.0 |
| 20260905151645 | 27 | 165 | 0.0 | 0.0 | 0.00 | 0.00 | 0.00 | 48 | 1019.0 |
| 20260905151004 | 27 | 162 | 0.0 | 1.6 | 0.00 | 0.00 | 0.00 | 49 | 1019.0 |
| 20260905150344 | 26 | 145 | 0.0 | 1.6 | 0.00 | 0.00 | 0.00 | 51 | 1019.4 |
| 20260905145648 | 26 | 188 | 0.0 | 3.2 | 0.00 | 0.00 | 0.00 | 53 | 1019.4 |
| 20260905145236 | 26 | 135 | 1.6 | 12.9 | 0.00 | 0.00 | 0.00 | 55 | 1019.0 |
| 20260905144408 | 26 | 136 | 0.0 | 9.7 | 0.00 | 0.00 | 0.00 | 55 | 1019.7 |
| 20260905143752 | 25 | 192 | 6.4 | 9.7 | 0.00 | 0.00 | 0.00 | 57 | 1019.4 |
| 20260905143117 | 25 | 196 | 1.6 | 3.2 | 0.00 | 0.00 | 0.00 | 58 | 1019.4 |
| 20260905142517 | 25 | 195 | 0.0 | 11.3 | 0.00 | 0.00 | 0.00 | 59 | 1019.4 |
| 20260905141926 | 24 | 201 | 6.4 | 11.3 | 0.00 | 0.00 | 0.00 | 60 | 1019.4 |
| 20260905141259 | 23 | 196 | 0.0 | 4.8 | 0.00 | 0.00 | 0.00 | 62 | 1019.4 |
| 20260905140653 | 23 | 184 | 0.0 | 6.4 | 0.00 | 0.00 | 0.00 | 62 | 1019.0 |
| 20260905140019 | 23 | 127 | 3.2 | 6.4 | 0.00 | 0.00 | 0.00 | 63 | 1019.0 |
| 20260905135407 | 23 | 177 | 1.6 | 4.8 | 0.00 | 0.00 | 0.00 | 64 | 1019.4 |
| 20260905135230 | 22 | 145 | 0.0 | 6.4 | 0.00 | 0.00 | 0.00 | 65 | 1019.0 |
| 20260905134116 | 22 | 150 | 0.0 | 4.8 | 0.00 | 0.00 | 0.00 | 66 | 1019.0 |
| 20260905133518 | 22 | 139 | 4.8 | 4.8 | 0.00 | 0.00 | 0.00 | 67 | 1019.0 |
| 20260905133110 | 22 | 155 | 0.0 | 3.2 | 0.00 | 0.00 | 0.00 | 67 | 1019.0 |
| 20260905132217 | 22 | 181 | 0.0 | 3.2 | 0.00 | 0.00 | 0.00 | 69 | 1019.0 |
| 20260905131622 | 21 | 165 | 0.0 | 1.6 | 0.00 | 0.00 | 0.00 | 70 | 1018.7 |
| 20260905130954 | 21 | 138 | 1.6 | 9.7 | 0.00 | 0.00 | 0.00 | 72 | 1018.7 |
| 20260905130307 | 21 | 140 | 1.6 | 9.7 | 0.00 | 0.00 | 0.00 | 72 | 1018.7 |
| 20260905125713 | 20 | 140 | 6.4 | 9.7 | 0.00 | 0.00 | 0.00 | 73 | 1018.3 |
| 20260905125021 | 20 | 146 | 6.4 | 9.7 | 0.00 | 0.00 | 0.00 | 73 | 1018.3 |
| 20260905124411 | 20 | 143 | 3.2 | 4.8 | 0.00 | 0.00 | 0.00 | 73 | 1018.3 |
| 20260905123808 | 20 | 146 | 3.2 | 4.8 | 0.00 | 0.00 | 0.00 | 73 | 1018.3 |
| 20260905123200 | 20 | 144 | 0.0 | 4.8 | 0.00 | 0.00 | 0.00 | 73 | 1018.3 |
| 20260905122540 | 20 | 149 | 0.0 | 4.8 | 0.00 | 0.00 | 0.00 | 73 | 1018.3 |
| 20260905121917 | 20 | 142 | 4.8 | 6.4 | 0.00 | 0.00 | 0.00 | 72 | 1018.0 |
| 20260905121400 | 20 | 128 | 4.8 | 6.4 | 0.00 | 0.00 | 0.00 | 72 | 1018.0 |
| 20260905120717 | 21 | 138 | 3.2 | 6.4 | 0.00 | 0.00 | 0.00 | 71 | 1018.0 |
| 20260905120116 | 21 | 135 | 3.2 | 6.4 | 0.00 | 0.00 | 0.00 | 71 | 1018.3 |
| 20260905115558 | 21 | 146 | 6.4 | 6.4 | 0.00 | 0.00 | 0.00 | 70 | 1018.3 |
| 20260905115058 | 21 | 147 | 4.8 | 6.4 | 0.00 | 0.00 | 0.00 | 70 | 1018.0 |
| 20260905114505 | 21 | 143 | 0.0 | 6.4 | 0.00 | 0.00 | 0.00 | 70 | 1018.3 |
| 20260905113924 | 21 | 148 | 6.4 | 6.4 | 0.00 | 0.00 | 0.00 | 70 | 1018.3 |
| 20260905113533 | 21 | 150 | 1.6 | 4.8 | 0.00 | 0.00 | 0.00 | 69 | 1018.0 |
| 20260905112716 | 21 | 157 | 1.6 | 4.8 | 0.00 | 0.00 | 0.00 | 69 | 1018.3 |
| 20260905112100 | 21 | 144 | 3.2 | 6.4 | 0.00 | 0.00 | 0.00 | 68 | 1018.3 |
| 20260905111504 | 21 | 136 | 6.4 | 6.4 | 0.00 | 0.00 | 0.00 | 67 | 1018.3 |
| 20260905111105 | 21 | 148 | 1.6 | 9.7 | 0.00 | 0.00 | 0.00 | 67 | 1018.3 |
| 20260905110339 | 22 | 142 | 3.2 | 9.7 | 0.00 | 0.00 | 0.00 | 66 | 1018.0 |
| 20260905105732 | 22 | 140 | 0.0 | 0.0 | 0.00 | 0.00 | 0.00 | 66 | 1018.3 |
| 20260905105112 | 22 | 138 | 0.0 | 3.2 | 0.00 | 0.00 | 0.00 | 65 | 1018.3 |
| 20260905104552 | 22 | 136 | 1.6 | 4.8 | 0.00 | 0.00 | 0.00 | 64 | 1018.3 |
| 20260905103917 | 22 | 136 | 0.0 | 4.8 | 0.00 | 0.00 | 0.00 | 64 | 1018.3 |
| 20260905103304 | 22 | 135 | 1.6 | 4.8 | 0.00 | 0.00 | 0.00 | 64 | 1018.3 |
| 20260905102846 | 22 | 130 | 0.0 | 3.2 | 0.00 | 0.00 | 0.00 | 63 | 1018.3 |
| 20260905102011 | 22 | 136 | 0.0 | 3.2 | 0.00 | 0.00 | 0.00 | 63 | 1018.0 |
| 20260905101411 | 22 | 136 | 0.0 | 0.0 | 0.00 | 0.00 | 0.00 | 63 | 1018.3 |
| 20260905100717 | 22 | 146 | 0.0 | 0.0 | 0.00 | 0.00 | 0.00 | 62 | 1018.3 |
| 20260905100059 | 22 | 146 | 0.0 | 0.0 | 0.00 | 0.00 | 0.00 | 62 | 1018.0 |
| 20260905095500 | 23 | 146 | 0.0 | 0.0 | 0.00 | 0.00 | 0.00 | 61 | 1018.0 |
| 20260905094926 | 23 | 146 | 0.0 | 0.0 | 0.00 | 0.00 | 0.00 | 61 | 1018.3 |
| 20260905094252 | 23 | 146 | 0.0 | 0.0 | 0.00 | 0.00 | 0.00 | 61 | 1018.3 |
| 20260905093753 | 23 | 145 | 0.0 | 0.0 | 0.00 | 0.00 | 0.00 | 60 | 1018.3 |
| 20260905093122 | 23 | 144 | 0.0 | 0.0 | 0.00 | 0.00 | 0.00 | 60 | 1017.7 |
| 20260905092447 | 23 | 146 | 0.0 | 0.0 | 0.00 | 0.00 | 0.00 | 60 | 1018.3 |
| 20260905091752 | 23 | 145 | 0.0 | 0.0 | 0.00 | 0.00 | 0.00 | 59 | 1018.3 |
| 20260905091116 | 23 | 148 | 0.0 | 0.0 | 0.00 | 0.00 | 0.00 | 59 | 1018.3 |
| 20260905090445 | 23 | 148 | 0.0 | 1.6 | 0.00 | 0.00 | 0.00 | 59 | 1018.3 |
| 20260905085824 | 23 | 148 | 0.0 | 0.0 | 0.00 | 0.00 | 0.00 | 59 | 1018.3 |
| 20260905085523 | 23 | 148 | 0.0 | 0.0 | 0.00 | 0.00 | 0.00 | 58 | 1018.3 |
| 20260905084558 | 23 | 149 | 0.0 | 1.6 | 0.00 | 0.00 | 0.00 | 58 | 1018.3 |
| 20260905084433 | 23 | 149 | 0.0 | 0.0 | 0.00 | 0.00 | 0.00 | 58 | 1018.0 |
| 20260905083315 | 23 | 154 | 0.0 | 0.0 | 0.00 | 0.00 | 0.00 | 58 | 1018.3 |
| 20260905083202 | 23 | 147 | 0.0 | 0.0 | 0.00 | 0.00 | 0.00 | 58 | 1018.3 |
| 20260905082118 | 23 | 139 | 0.0 | 0.0 | 0.00 | 0.00 | 0.00 | 57 | 1018.0 |
| 20260905081841 | 23 | 144 | 0.0 | 0.0 | 0.00 | 0.00 | 0.00 | 57 | 1018.3 |
| 20260905081110 | 23 | 140 | 0.0 | 0.0 | 0.00 | 0.00 | 0.00 | 57 | 1018.0 |
| 20260905080514 | 23 | 129 | 0.0 | 0.0 | 0.00 | 0.00 | 0.00 | 57 | 1018.0 |
| 20260905075909 | 24 | 148 | 0.0 | 0.0 | 0.00 | 0.00 | 0.00 | 56 | 1018.3 |
| 20260905075359 | 24 | 155 | 0.0 | 0.0 | 0.00 | 0.00 | 0.00 | 56 | 1018.3 |
| 20260905074800 | 24 | 148 | 0.0 | 0.0 | 0.00 | 0.00 | 0.00 | 55 | 1018.0 |
| 20260905074119 | 24 | 142 | 0.0 | 4.8 | 0.00 | 0.00 | 0.00 | 55 | 1018.3 |
| 20260905073419 | 25 | 136 | 0.0 | 11.3 | 0.00 | 0.00 | 0.00 | 54 | 1018.3 |
| 20260905073016 | 25 | 141 | 8.0 | 11.3 | 0.00 | 0.00 | 0.00 | 54 | 1018.3 |
| 20260905072116 | 25 | 176 | 0.0 | 9.7 | 0.00 | 0.00 | 0.00 | 54 | 1018.3 |
| 20260905071515 | 25 | 138 | 3.2 | 9.7 | 0.00 | 0.00 | 0.00 | 53 | 1018.3 |
| 20260905070912 | 25 | 140 | 0.0 | 9.7 | 0.00 | 0.00 | 0.00 | 53 | 1018.3 |
| 20260905070358 | 25 | 140 | 1.6 | 3.2 | 0.00 | 0.00 | 0.00 | 52 | 1018.7 |
| 20260905065511 | 25 | 133 | 0.0 | 3.2 | 0.00 | 0.00 | 0.00 | 52 | 1018.3 |
| 20260905064857 | 25 | 121 | 0.0 | 6.4 | 0.00 | 0.00 | 0.00 | 51 | 1018.3 |
| 20260905064220 | 25 | 136 | 0.0 | 6.4 | 0.00 | 0.00 | 0.00 | 50 | 1018.3 |
| 20260905063821 | 25 | 151 | 0.0 | 1.6 | 0.00 | 0.00 | 0.00 | 50 | 1018.3 |
| 20260905062946 | 25 | 135 | 0.0 | 0.0 | 0.00 | 0.00 | 0.00 | 49 | 1018.7 |
| 20260905062359 | 25 | 179 | 0.0 | 0.0 | 0.00 | 0.00 | 0.00 | 47 | 1018.3 |
| 20260905061759 | 26 | 140 | 0.0 | 3.2 | 0.00 | 0.00 | 0.00 | 45 | 1018.3 |
| 20260905061145 | 26 | 147 | 0.0 | 1.6 | 0.00 | 0.00 | 0.00 | 45 | 1018.3 |
| 20260905060646 | 26 | 135 | 0.0 | 0.0 | 0.00 | 0.00 | 0.00 | 45 | 1018.3 |
| 20260905060231 | 26 | 135 | 0.0 | 0.0 | 0.00 | 0.00 | 0.00 | 45 | 1018.0 |
| 20260905055637 | 26 | 129 | 0.0 | 0.0 | 0.00 | 0.00 | 0.00 | 45 | 1018.3 |
| 20260905054811 | 26 | 138 | 0.0 | 0.0 | 0.00 | 0.00 | 0.00 | 45 | 1018.3 |
| 20260905054120 | 26 | 91 | 0.0 | 0.0 | 0.00 | 0.00 | 0.00 | 46 | 1018.0 |
| 20260905053511 | 26 | 90 | 0.0 | 0.0 | 0.00 | 0.00 | 0.00 | 46 | 1018.0 |
| 20260905052956 | 26 | 100 | 0.0 | 0.0 | 0.00 | 0.00 | 0.00 | 45 | 1018.0 |
| 20260905052601 | 26 | 51 | 0.0 | 0.0 | 0.00 | 0.00 | 0.00 | 45 | 1018.0 |